Time,TemperatureF,DewpointF,PressureIn,WindDirection,WindDirectionDegrees,WindSpeedMPH,WindSpeedGustMPH,Humidity,HourlyPrecipIn,Conditions,Clouds,dailyrainin,SolarRadiationWatts/m^2,SoftwareType,DateUTC
2013-08-10 00:01:00,55.7,51.6,29.68,West,267,0.0,0.0,86,0.00,,,0.00,0,WeatherCatV1.02B3,2013-08-10 07:01:00,
2013-08-10 00:06:00,55.0,51.5,29.68,West,267,0.0,0.0,88,0.00,,,0.00,0,WeatherCatV1.02B3,2013-08-10 07:06:00,
2013-08-10 00:11:00,55.0,51.5,29.68,West,267,0.0,0.0,88,0.00,,,0.00,0,WeatherCatV1.02B3,2013-08-10 07:11:00,
2013-08-10 00:16:00,55.0,51.5,29.68,West,267,0.0,0.0,88,0.00,,,0.00,0,WeatherCatV1.02B3,2013-08-10 07:16:00,
2013-08-10 00:21:00,55.4,51.9,29.68,West,267,0.0,0.0,88,0.00,,,0.00,0,WeatherCatV1.02B3,2013-08-10 07:21:00,
2013-08-10 00:26:00,55.3,51.5,29.68,West,267,0.0,0.0,87,0.00,,,0.00,0,WeatherCatV1.02B3,2013-08-10 07:26:00,
2013-08-10 00:31:00,55.3,51.8,29.68,West,267,1.0,2.0,88,0.00,,,0.00,0,WeatherCatV1.02B3,2013-08-10 07:31:00,
2013-08-10 00:36:00,55.5,51.7,29.68,West,276,0.0,0.0,87,0.00,,,0.00,0,WeatherCatV1.02B3,2013-08-10 07:36:00,
2013-08-10 00:41:00,55.6,51.5,29.68,West,277,0.0,1.0,86,0.00,,,0.00,0,WeatherCatV1.02B3,2013-08-10 07:41:00,
2013-08-10 00:46:00,55.6,51.5,29.68,West,277,0.0,1.0,86,0.00,,,0.00,0,WeatherCatV1.02B3,2013-08-10 07:46:00,
2013-08-10 00:51:00,55.6,51.5,29.68,WNW,289,0.0,0.0,86,0.00,,,0.00,0,WeatherCatV1.02B3,2013-08-10 07:51:00,
2013-08-10 00:56:00,55.5,51.1,29.68,NNE,26,1.0,2.0,85,0.00,,,0.00,0,WeatherCatV1.02B3,2013-08-10 07:56:00,
2013-08-10 01:01:00,55.7,50.6,29.68,NNE,26,0.0,1.0,83,0.00,,,0.00,0,WeatherCatV1.02B3,2013-08-10 08:01:00,
2013-08-10 01:06:00,55.5,50.4,29.68,NNE,26,0.0,1.0,83,0.00,,,0.00,0,WeatherCatV1.02B3,2013-08-10 08:06:00,
2013-08-10 01:11:00,55.6,50.5,29.68,NNE,28,0.0,0.0,83,0.00,,,0.00,0,WeatherCatV1.02B3,2013-08-10 08:11:00,
2013-08-10 01:16:00,54.8,50.1,29.68,NNE,28,0.0,0.0,84,0.00,,,0.00,0,WeatherCatV1.02B3,2013-08-10 08:16:00,
2013-08-10 01:21:00,54.2,49.5,29.68,NNE,28,0.0,0.0,84,0.00,,,0.00,0,WeatherCatV1.02B3,2013-08-10 08:21:00,
2013-08-10 01:26:00,53.5,49.4,29.68,NNE,28,0.0,0.0,86,0.00,,,0.00,0,WeatherCatV1.02B3,2013-08-10 08:26:00,
2013-08-10 01:31:00,53.8,49.7,29.68,NNE,28,0.0,0.0,86,0.00,,,0.00,0,WeatherCatV1.02B3,2013-08-10 08:31:00,
2013-08-10 01:36:00,53.5,49.4,29.68,NNE,28,0.0,0.0,86,0.00,,,0.00,0,WeatherCatV1.02B3,2013-08-10 08:36:00,
2013-08-10 01:41:00,53.6,49.8,29.68,NNE,28,0.0,0.0,87,0.00,,,0.00,0,WeatherCatV1.02B3,2013-08-10 08:41:00,
2013-08-10 01:46:00,53.3,49.5,29.68,NNE,28,0.0,0.0,87,0.00,,,0.00,0,WeatherCatV1.02B3,2013-08-10 08:46:00,
2013-08-10 01:51:00,53.3,49.5,29.68,NNE,28,0.0,0.0,87,0.00,,,0.00,0,WeatherCatV1.02B3,2013-08-10 08:51:00,
2013-08-10 01:56:00,53.2,49.4,29.68,NNE,28,0.0,0.0,87,0.00,,,0.00,0,WeatherCatV1.02B3,2013-08-10 08:56:00,
2013-08-10 02:01:00,53.0,49.2,29.68,NNE,28,0.0,0.0,87,0.00,,,0.00,0,WeatherCatV1.02B3,2013-08-10 09:01:00,
2013-08-10 02:06:00,53.0,49.5,29.68,NNE,28,0.0,0.0,88,0.00,,,0.00,0,WeatherCatV1.02B3,2013-08-10 09:06:00,
2013-08-10 02:11:00,53.1,49.6,29.68,NNE,28,0.0,0.0,88,0.00,,,0.00,0,WeatherCatV1.02B3,2013-08-10 09:11:00,
2013-08-10 02:16:00,53.1,49.6,29.68,NNE,28,0.0,0.0,88,0.00,,,0.00,0,WeatherCatV1.02B3,2013-08-10 09:16:00,
2013-08-10 02:21:00,52.9,49.4,29.68,NNE,28,0.0,0.0,88,0.00,,,0.00,0,WeatherCatV1.02B3,2013-08-10 09:21:00,
2013-08-10 02:26:00,52.4,48.6,29.68,NNE,28,0.0,0.0,87,0.00,,,0.00,0,WeatherCatV1.02B3,2013-08-10 09:26:00,
2013-08-10 02:31:00,52.8,49.6,29.68,NNE,28,0.0,1.0,89,0.00,,,0.00,0,WeatherCatV1.02B3,2013-08-10 09:31:00,
2013-08-10 02:36:00,52.6,49.1,29.68,NNE,28,0.0,0.0,88,0.00,,,0.00,0,WeatherCatV1.02B3,2013-08-10 09:36:00,
2013-08-10 02:41:00,52.3,48.9,29.68,NNE,28,0.0,0.0,88,0.00,,,0.00,0,WeatherCatV1.02B3,2013-08-10 09:41:00,
2013-08-10 02:46:00,52.1,48.7,29.68,NNE,28,0.0,0.0,88,0.00,,,0.00,0,WeatherCatV1.02B3,2013-08-10 09:46:00,
2013-08-10 02:51:00,52.3,49.2,29.68,NNE,28,0.0,0.0,89,0.00,,,0.00,0,WeatherCatV1.02B3,2013-08-10 09:51:00,
2013-08-10 02:56:00,52.1,49.0,29.68,NNE,28,0.0,0.0,89,0.00,,,0.00,0,WeatherCatV1.02B3,2013-08-10 09:56:00,
2013-08-10 03:01:00,52.2,48.8,29.68,NNE,28,0.0,0.0,88,0.00,,,0.00,0,WeatherCatV1.02B3,2013-08-10 10:01:00,
2013-08-10 03:06:00,51.4,48.3,29.68,NNE,28,0.0,0.0,89,0.00,,,0.00,0,WeatherCatV1.02B3,2013-08-10 10:06:00,
2013-08-10 03:11:00,51.8,49.0,29.68,NNE,28,0.0,0.0,90,0.00,,,0.00,0,WeatherCatV1.02B3,2013-08-10 10:11:00,
2013-08-10 03:16:00,51.8,48.7,29.68,NNE,28,0.0,0.0,89,0.00,,,0.00,0,WeatherCatV1.02B3,2013-08-10 10:16:00,
2013-08-10 03:21:00,51.6,48.5,29.68,NNE,28,0.0,0.0,89,0.00,,,0.00,0,WeatherCatV1.02B3,2013-08-10 10:21:00,
2013-08-10 03:26:00,51.4,48.3,29.68,NNE,28,0.0,0.0,89,0.00,,,0.00,0,WeatherCatV1.02B3,2013-08-10 10:26:00,
2013-08-10 03:31:00,51.7,48.6,29.68,NNE,28,0.0,0.0,89,0.00,,,0.00,0,WeatherCatV1.02B3,2013-08-10 10:31:00,
2013-08-10 03:36:00,51.4,48.3,29.68,NNE,28,0.0,0.0,89,0.00,,,0.00,0,WeatherCatV1.02B3,2013-08-10 10:36:00,
2013-08-10 03:41:00,51.4,48.3,29.68,NNE,28,0.0,0.0,89,0.00,,,0.00,0,WeatherCatV1.02B3,2013-08-10 10:41:00,
2013-08-10 03:46:00,50.8,47.7,29.68,NNE,28,0.0,0.0,89,0.00,,,0.00,0,WeatherCatV1.02B3,2013-08-10 10:46:00,
2013-08-10 03:51:00,51.0,48.2,29.68,NNE,28,0.0,0.0,90,0.00,,,0.00,0,WeatherCatV1.02B3,2013-08-10 10:51:00,
2013-08-10 03:56:00,51.0,48.2,29.68,NNE,28,0.0,0.0,90,0.00,,,0.00,0,WeatherCatV1.02B3,2013-08-10 10:56:00,
2013-08-10 04:01:00,50.9,48.1,29.68,NNE,28,0.0,0.0,90,0.00,,,0.00,0,WeatherCatV1.02B3,2013-08-10 11:01:00,
2013-08-10 04:06:00,51.0,48.2,29.68,NNE,28,0.0,0.0,90,0.00,,,0.00,0,WeatherCatV1.02B3,2013-08-10 11:06:00,
2013-08-10 04:11:00,50.8,48.0,29.68,NNE,28,0.0,0.0,90,0.00,,,0.00,0,WeatherCatV1.02B3,2013-08-10 11:11:00,
2013-08-10 04:16:00,50.7,47.9,29.68,NNE,28,0.0,0.0,90,0.00,,,0.00,0,WeatherCatV1.02B3,2013-08-10 11:16:00,
2013-08-10 04:21:00,50.3,47.5,29.68,NNE,28,0.0,0.0,90,0.00,,,0.00,0,WeatherCatV1.02B3,2013-08-10 11:21:00,
2013-08-10 04:26:00,50.5,48.0,29.68,NNE,28,0.0,0.0,91,0.00,,,0.00,0,WeatherCatV1.02B3,2013-08-10 11:26:00,
2013-08-10 04:31:00,50.8,48.0,29.68,NNE,28,0.0,0.0,90,0.00,,,0.00,0,WeatherCatV1.02B3,2013-08-10 11:31:00,
2013-08-10 04:36:00,50.2,47.4,29.68,NNE,28,0.0,0.0,90,0.00,,,0.00,0,WeatherCatV1.02B3,2013-08-10 11:36:00,
2013-08-10 04:41:00,50.0,47.2,29.68,NNE,28,0.0,0.0,90,0.00,,,0.00,0,WeatherCatV1.02B3,2013-08-10 11:41:00,
2013-08-10 04:46:00,50.3,47.5,29.68,NNE,28,0.0,0.0,90,0.00,,,0.00,0,WeatherCatV1.02B3,2013-08-10 11:46:00,
2013-08-10 04:51:00,50.4,47.9,29.68,NNE,28,0.0,1.0,91,0.00,,,0.00,0,WeatherCatV1.02B3,2013-08-10 11:51:00,
2013-08-10 04:56:00,50.4,47.6,29.68,NNE,28,0.0,0.0,90,0.00,,,0.00,0,WeatherCatV1.02B3,2013-08-10 11:56:00,
2013-08-10 05:01:00,50.1,47.3,29.68,NNE,28,0.0,0.0,90,0.00,,,0.00,0,WeatherCatV1.02B3,2013-08-10 12:01:00,
2013-08-10 05:06:00,50.0,47.5,29.68,NNE,28,0.0,0.0,91,0.00,,,0.00,0,WeatherCatV1.02B3,2013-08-10 12:06:00,
2013-08-10 05:11:00,50.2,47.7,29.68,NNE,28,0.0,0.0,91,0.00,,,0.00,0,WeatherCatV1.02B3,2013-08-10 12:11:00,
2013-08-10 05:16:00,49.9,47.1,29.68,NNE,28,0.0,0.0,90,0.00,,,0.00,0,WeatherCatV1.02B3,2013-08-10 12:16:00,
2013-08-10 05:21:00,50.0,47.5,29.68,NNE,28,0.0,0.0,91,0.00,,,0.00,0,WeatherCatV1.02B3,2013-08-10 12:21:00,
2013-08-10 05:26:00,49.9,47.4,29.68,NNE,28,0.0,0.0,91,0.00,,,0.00,0,WeatherCatV1.02B3,2013-08-10 12:26:00,
2013-08-10 05:31:00,49.9,47.4,29.68,NNE,29,0.0,1.0,91,0.00,,,0.00,0,WeatherCatV1.02B3,2013-08-10 12:31:00,
2013-08-10 05:36:00,49.4,46.9,29.68,NNE,28,0.0,0.0,91,0.00,,,0.00,0,WeatherCatV1.02B3,2013-08-10 12:36:00,
2013-08-10 05:41:00,49.8,47.3,29.68,NNE,29,0.0,0.0,91,0.00,,,0.00,0,WeatherCatV1.02B3,2013-08-10 12:41:00,
2013-08-10 05:46:00,49.6,46.8,29.68,NNE,29,0.0,0.0,90,0.00,,,0.00,0,WeatherCatV1.02B3,2013-08-10 12:46:00,
2013-08-10 05:51:00,49.2,46.7,29.68,NNE,28,0.0,0.0,91,0.00,,,0.00,0,WeatherCatV1.02B3,2013-08-10 12:51:00,
2013-08-10 05:56:00,49.5,47.0,29.68,NNE,28,0.0,0.0,91,0.00,,,0.00,0,WeatherCatV1.02B3,2013-08-10 12:56:00,
2013-08-10 06:01:00,49.1,46.6,29.68,NNE,28,0.0,0.0,91,0.00,,,0.00,0,WeatherCatV1.02B3,2013-08-10 13:01:00,
2013-08-10 06:06:00,49.2,46.7,29.68,NNE,28,0.0,0.0,91,0.00,,,0.00,0,WeatherCatV1.02B3,2013-08-10 13:06:00,
2013-08-10 06:11:00,49.4,47.2,29.68,NNE,28,0.0,0.0,92,0.00,,,0.00,0,WeatherCatV1.02B3,2013-08-10 13:11:00,
2013-08-10 06:16:00,49.3,46.8,29.68,NNE,29,0.0,0.0,91,0.00,,,0.00,0,WeatherCatV1.02B3,2013-08-10 13:16:00,
2013-08-10 06:21:00,49.1,46.6,29.68,NNE,29,0.0,0.0,91,0.00,,,0.00,5,WeatherCatV1.02B3,2013-08-10 13:21:00,
2013-08-10 06:26:00,49.4,47.2,29.68,NNE,28,0.0,0.0,92,0.00,,,0.00,7,WeatherCatV1.02B3,2013-08-10 13:26:00,
2013-08-10 06:31:00,49.3,46.8,29.68,NNE,28,0.0,0.0,91,0.00,,,0.00,11,WeatherCatV1.02B3,2013-08-10 13:31:00,
2013-08-10 06:36:00,49.2,46.7,29.68,NNE,28,0.0,0.0,91,0.00,,,0.00,12,WeatherCatV1.02B3,2013-08-10 13:36:00,
2013-08-10 06:41:00,49.2,46.7,29.68,NNE,28,0.0,0.0,91,0.00,,,0.00,16,WeatherCatV1.02B3,2013-08-10 13:41:00,
2013-08-10 06:46:00,49.3,47.1,29.68,NNE,28,0.0,0.0,92,0.00,,,0.00,19,WeatherCatV1.02B3,2013-08-10 13:46:00,
2013-08-10 06:51:00,49.6,47.4,29.68,NNE,28,0.0,0.0,92,0.00,,,0.00,21,WeatherCatV1.02B3,2013-08-10 13:51:00,
2013-08-10 06:56:00,50.0,47.8,29.68,NNE,28,0.0,0.0,92,0.00,,,0.00,26,WeatherCatV1.02B3,2013-08-10 13:56:00,
2013-08-10 07:01:00,50.4,47.9,29.68,NNE,28,0.0,0.0,91,0.00,,,0.00,28,WeatherCatV1.02B3,2013-08-10 14:01:00,
2013-08-10 07:06:00,50.6,48.1,29.68,NNE,28,0.0,1.0,91,0.00,,,0.00,32,WeatherCatV1.02B3,2013-08-10 14:06:00,
2013-08-10 07:11:00,51.8,49.5,29.68,NNE,28,0.0,0.0,92,0.00,,,0.00,37,WeatherCatV1.02B3,2013-08-10 14:11:00,
2013-08-10 07:16:00,52.0,49.2,29.68,NNE,28,0.0,1.0,90,0.00,,,0.00,47,WeatherCatV1.02B3,2013-08-10 14:16:00,
2013-08-10 07:21:00,52.7,49.5,29.68,NNE,28,1.0,1.0,89,0.00,,,0.00,56,WeatherCatV1.02B3,2013-08-10 14:21:00,
2013-08-10 07:26:00,54.0,50.5,29.68,NNE,28,0.0,1.0,88,0.00,,,0.00,63,WeatherCatV1.02B3,2013-08-10 14:26:00,
2013-08-10 07:31:00,55.0,50.6,29.68,NNE,29,0.0,0.0,85,0.00,,,0.00,77,WeatherCatV1.02B3,2013-08-10 14:31:00,
2013-08-10 07:36:00,55.7,50.9,29.68,NNE,29,0.0,0.0,84,0.00,,,0.00,121,WeatherCatV1.02B3,2013-08-10 14:36:00,
2013-08-10 07:41:00,56.9,51.5,29.68,NNE,29,0.0,0.0,82,0.00,,,0.00,120,WeatherCatV1.02B3,2013-08-10 14:41:00,
2013-08-10 07:46:00,57.8,51.7,29.68,NNE,29,0.0,1.0,80,0.00,,,0.00,151,WeatherCatV1.02B3,2013-08-10 14:46:00,
2013-08-10 07:51:00,58.4,51.9,29.68,NE,40,0.0,1.0,79,0.00,,,0.00,148,WeatherCatV1.02B3,2013-08-10 14:51:00,
2013-08-10 07:56:00,58.6,52.1,29.68,South,175,1.0,2.0,79,0.00,,,0.00,135,WeatherCatV1.02B3,2013-08-10 14:56:00,
2013-08-10 08:01:00,58.7,52.2,29.68,SSE,155,0.0,2.0,79,0.00,,,0.00,181,WeatherCatV1.02B3,2013-08-10 15:01:00,
2013-08-10 08:05:00,58.9,52.0,29.68,South,175,0.0,2.0,78,0.00,,,0.00,176,WeatherCatV1.02B3,2013-08-10 15:05:00,
2013-08-10 08:10:00,59.3,52.8,29.68,South,171,0.0,1.0,79,0.00,,,0.00,188,WeatherCatV1.02B3,2013-08-10 15:10:00,
2013-08-10 08:15:00,59.5,53.0,29.68,ESE,106,0.0,2.0,79,0.00,,,0.00,202,WeatherCatV1.02B3,2013-08-10 15:15:00,
2013-08-10 08:20:00,60.6,54.7,29.68,WNW,290,1.0,1.0,81,0.00,,,0.00,346,WeatherCatV1.02B3,2013-08-10 15:20:00,
2013-08-10 08:25:00,61.3,56.1,29.68,WNW,294,2.0,3.0,83,0.00,,,0.00,299,WeatherCatV1.02B3,2013-08-10 15:25:00,
2013-08-10 08:30:00,62.2,56.6,29.68,South,178,1.0,2.0,82,0.00,,,0.00,329,WeatherCatV1.02B3,2013-08-10 15:30:00,
2013-08-10 08:35:00,61.6,56.7,29.68,West,271,3.0,4.0,84,0.00,,,0.00,461,WeatherCatV1.02B3,2013-08-10 15:35:00,
2013-08-10 08:40:00,62.3,56.7,29.68,West,279,3.0,3.0,82,0.00,,,0.00,359,WeatherCatV1.02B3,2013-08-10 15:40:00,
2013-08-10 08:45:00,62.6,57.0,29.68,NW,313,0.0,2.0,82,0.00,,,0.00,434,WeatherCatV1.02B3,2013-08-10 15:45:00,
2013-08-10 08:50:00,63.6,57.3,29.68,West,271,0.0,1.0,80,0.00,,,0.00,439,WeatherCatV1.02B3,2013-08-10 15:50:00,
2013-08-10 08:55:00,63.7,57.1,29.68,West,267,2.0,7.0,79,0.00,,,0.00,445,WeatherCatV1.02B3,2013-08-10 15:55:00,
2013-08-10 09:00:00,63.9,57.6,29.68,West,266,2.0,3.0,80,0.00,,,0.00,457,WeatherCatV1.02B3,2013-08-10 16:00:00,
2013-08-10 09:05:00,64.2,57.5,29.68,West,276,1.0,5.0,79,0.00,,,0.00,469,WeatherCatV1.02B3,2013-08-10 16:05:00,
2013-08-10 09:10:00,64.3,57.6,29.68,WSW,251,2.0,4.0,79,0.00,,,0.00,480,WeatherCatV1.02B3,2013-08-10 16:10:00,
2013-08-10 09:15:00,64.7,57.7,29.68,WSW,254,2.0,5.0,78,0.00,,,0.00,499,WeatherCatV1.02B3,2013-08-10 16:15:00,
2013-08-10 09:20:00,64.8,57.4,29.68,NNW,328,1.0,3.0,77,0.00,,,0.00,512,WeatherCatV1.02B3,2013-08-10 16:20:00,
2013-08-10 09:25:00,65.3,58.3,29.68,SW,234,0.0,5.0,78,0.00,,,0.00,527,WeatherCatV1.02B3,2013-08-10 16:25:00,
2013-08-10 09:30:00,65.8,58.0,29.68,West,281,3.0,5.0,76,0.00,,,0.00,548,WeatherCatV1.02B3,2013-08-10 16:30:00,
2013-08-10 09:35:00,66.7,58.5,29.68,NW,315,3.0,4.0,75,0.00,,,0.00,563,WeatherCatV1.02B3,2013-08-10 16:35:00,
2013-08-10 09:40:00,66.7,58.1,29.68,WSW,252,2.0,7.0,74,0.00,,,0.00,577,WeatherCatV1.02B3,2013-08-10 16:40:00,
2013-08-10 09:45:00,67.3,58.3,29.68,SSE,167,2.0,5.0,73,0.00,,,0.00,591,WeatherCatV1.02B3,2013-08-10 16:45:00,
2013-08-10 09:50:00,68.1,58.7,29.68,West,280,2.0,3.0,72,0.00,,,0.00,606,WeatherCatV1.02B3,2013-08-10 16:50:00,
2013-08-10 09:55:00,68.1,58.7,29.68,SW,220,3.0,3.0,72,0.00,,,0.00,619,WeatherCatV1.02B3,2013-08-10 16:55:00,
2013-08-10 10:00:00,69.0,59.2,29.68,WNW,287,0.0,3.0,71,0.00,,,0.00,633,WeatherCatV1.02B3,2013-08-10 17:00:00,
2013-08-10 10:05:00,69.5,58.5,29.68,West,277,1.0,1.0,68,0.00,,,0.00,647,WeatherCatV1.02B3,2013-08-10 17:05:00,
2013-08-10 10:10:00,69.8,59.2,29.68,WSW,251,4.0,5.0,69,0.00,,,0.00,659,WeatherCatV1.02B3,2013-08-10 17:10:00,
2013-08-10 10:15:00,70.2,59.1,29.68,West,264,1.0,3.0,68,0.00,,,0.00,673,WeatherCatV1.02B3,2013-08-10 17:15:00,
2013-08-10 10:20:00,71.2,59.7,29.68,SW,223,3.0,4.0,67,0.00,,,0.00,686,WeatherCatV1.02B3,2013-08-10 17:20:00,
2013-08-10 10:25:00,71.5,59.1,29.68,West,272,2.0,4.0,65,0.00,,,0.00,696,WeatherCatV1.02B3,2013-08-10 17:25:00,
2013-08-10 10:30:00,71.5,59.1,29.68,West,273,3.0,7.0,65,0.00,,,0.00,710,WeatherCatV1.02B3,2013-08-10 17:30:00,
2013-08-10 10:35:00,72.2,59.3,29.68,WNW,298,3.0,6.0,64,0.00,,,0.00,721,WeatherCatV1.02B3,2013-08-10 17:35:00,
2013-08-10 10:40:00,72.5,59.2,29.68,West,272,1.0,6.0,63,0.00,,,0.00,731,WeatherCatV1.02B3,2013-08-10 17:40:00,
2013-08-10 10:45:00,72.7,59.4,29.68,SSE,155,2.0,8.0,63,0.00,,,0.00,742,WeatherCatV1.02B3,2013-08-10 17:45:00,
2013-08-10 10:50:00,73.1,59.7,29.68,NW,323,0.0,2.0,63,0.00,,,0.00,752,WeatherCatV1.02B3,2013-08-10 17:50:00,
2013-08-10 10:55:00,73.3,59.0,29.68,West,269,5.0,8.0,61,0.00,,,0.00,761,WeatherCatV1.02B3,2013-08-10 17:55:00,
2013-08-10 11:00:00,74.1,59.8,29.68,WSW,254,2.0,6.0,61,0.00,,,0.00,773,WeatherCatV1.02B3,2013-08-10 18:00:00,
2013-08-10 11:05:00,73.7,58.9,29.68,ESE,115,0.0,8.0,60,0.00,,,0.00,786,WeatherCatV1.02B3,2013-08-10 18:05:00,
2013-08-10 11:10:00,74.4,59.1,29.68,ESE,103,1.0,5.0,59,0.00,,,0.00,793,WeatherCatV1.02B3,2013-08-10 18:10:00,
2013-08-10 11:15:00,75.1,58.8,29.68,ENE,61,3.0,9.0,57,0.00,,,0.00,800,WeatherCatV1.02B3,2013-08-10 18:15:00,
2013-08-10 11:20:00,74.3,59.0,29.68,WNW,292,3.0,9.0,59,0.00,,,0.00,809,WeatherCatV1.02B3,2013-08-10 18:20:00,
2013-08-10 11:25:00,74.3,59.0,29.68,East,92,0.0,5.0,59,0.00,,,0.00,819,WeatherCatV1.02B3,2013-08-10 18:25:00,
2013-08-10 11:30:00,74.9,59.1,29.68,ESE,107,3.0,6.0,58,0.00,,,0.00,826,WeatherCatV1.02B3,2013-08-10 18:30:00,
2013-08-10 11:35:00,75.1,59.3,29.68,East,92,2.0,6.0,58,0.00,,,0.00,833,WeatherCatV1.02B3,2013-08-10 18:35:00,
2013-08-10 11:40:00,74.9,59.1,29.68,NW,317,1.0,4.0,58,0.00,,,0.00,840,WeatherCatV1.02B3,2013-08-10 18:40:00,
2013-08-10 11:45:00,75.3,59.5,29.68,East,90,2.0,7.0,58,0.00,,,0.00,846,WeatherCatV1.02B3,2013-08-10 18:45:00,
2013-08-10 11:50:00,75.2,58.4,29.68,NNE,22,0.0,9.0,56,0.00,,,0.00,849,WeatherCatV1.02B3,2013-08-10 18:50:00,
2013-08-10 11:55:00,75.4,59.1,29.68,NNW,336,3.0,3.0,57,0.00,,,0.00,858,WeatherCatV1.02B3,2013-08-10 18:55:00,
2013-08-10 12:00:00,76.1,58.7,29.68,North,5,2.0,7.0,55,0.00,,,0.00,863,WeatherCatV1.02B3,2013-08-10 19:00:00,
2013-08-10 12:05:00,76.2,58.8,29.68,NE,49,1.0,4.0,55,0.00,,,0.00,867,WeatherCatV1.02B3,2013-08-10 19:05:00,
2013-08-10 12:10:00,76.1,58.7,29.68,WNW,302,2.0,7.0,55,0.00,,,0.00,872,WeatherCatV1.02B3,2013-08-10 19:10:00,
2013-08-10 12:15:00,76.2,59.3,29.68,ENE,57,4.0,6.0,56,0.00,,,0.00,877,WeatherCatV1.02B3,2013-08-10 19:15:00,
2013-08-10 12:20:00,76.7,59.3,29.68,North,355,0.0,4.0,55,0.00,,,0.00,877,WeatherCatV1.02B3,2013-08-10 19:20:00,
2013-08-10 12:25:00,76.6,58.7,29.68,WNW,300,1.0,4.0,54,0.00,,,0.00,882,WeatherCatV1.02B3,2013-08-10 19:25:00,
2013-08-10 12:30:00,77.9,59.4,29.68,ENE,67,2.0,5.0,53,0.00,,,0.00,884,WeatherCatV1.02B3,2013-08-10 19:30:00,
2013-08-10 12:35:00,77.8,59.3,29.68,NE,44,1.0,4.0,53,0.00,,,0.00,889,WeatherCatV1.02B3,2013-08-10 19:35:00,
2013-08-10 12:41:00,78.4,59.8,29.68,ENE,57,4.0,4.0,53,0.00,,,0.00,891,WeatherCatV1.02B3,2013-08-10 19:41:00,
2013-08-10 12:46:00,78.0,59.5,29.68,NE,54,3.0,5.0,53,0.00,,,0.00,893,WeatherCatV1.02B3,2013-08-10 19:46:00,
2013-08-10 12:50:00,77.3,58.8,29.68,South,171,0.0,3.0,53,0.00,,,0.00,895,WeatherCatV1.02B3,2013-08-10 19:50:00,
2013-08-10 12:56:00,77.8,59.8,29.68,SE,138,1.0,3.0,54,0.00,,,0.00,891,WeatherCatV1.02B3,2013-08-10 19:56:00,
2013-08-10 13:01:00,78.5,59.9,29.68,ENE,68,3.0,3.0,53,0.00,,,0.00,895,WeatherCatV1.02B3,2013-08-10 20:01:00,
2013-08-10 13:05:00,78.7,59.6,29.68,ENE,78,5.0,6.0,52,0.00,,,0.00,891,WeatherCatV1.02B3,2013-08-10 20:05:00,
2013-08-10 13:11:00,78.3,59.2,29.68,NW,317,1.0,3.0,52,0.00,,,0.00,891,WeatherCatV1.02B3,2013-08-10 20:11:00,
2013-08-10 13:16:00,77.9,58.8,29.68,NE,34,1.0,5.0,52,0.00,,,0.00,891,WeatherCatV1.02B3,2013-08-10 20:16:00,
2013-08-10 13:21:00,78.0,58.9,29.68,SSE,155,4.0,7.0,52,0.00,,,0.00,891,WeatherCatV1.02B3,2013-08-10 20:21:00,
2013-08-10 13:26:00,77.4,58.9,29.68,ENE,77,4.0,5.0,53,0.00,,,0.00,889,WeatherCatV1.02B3,2013-08-10 20:26:00,
2013-08-10 13:31:00,77.3,59.3,29.68,North,9,0.0,3.0,54,0.00,,,0.00,888,WeatherCatV1.02B3,2013-08-10 20:31:00,
2013-08-10 13:36:00,78.7,59.6,29.68,NNE,18,3.0,4.0,52,0.00,,,0.00,884,WeatherCatV1.02B3,2013-08-10 20:36:00,
2013-08-10 13:41:00,77.9,59.4,29.68,NW,304,0.0,3.0,53,0.00,,,0.00,881,WeatherCatV1.02B3,2013-08-10 20:41:00,
2013-08-10 13:46:00,77.6,58.6,29.68,ENE,75,3.0,7.0,52,0.00,,,0.00,881,WeatherCatV1.02B3,2013-08-10 20:46:00,
2013-08-10 13:51:00,78.4,59.3,29.68,WSW,253,1.0,3.0,52,0.00,,,0.00,877,WeatherCatV1.02B3,2013-08-10 20:51:00,
2013-08-10 13:56:00,78.4,58.8,29.68,WNW,298,0.0,5.0,51,0.00,,,0.00,870,WeatherCatV1.02B3,2013-08-10 20:56:00,
2013-08-10 14:01:00,78.7,59.6,29.68,NE,54,1.0,6.0,52,0.00,,,0.00,867,WeatherCatV1.02B3,2013-08-10 21:01:00,
2013-08-10 14:06:00,78.3,59.7,29.68,ENE,60,4.0,7.0,53,0.00,,,0.00,860,WeatherCatV1.02B3,2013-08-10 21:06:00,
2013-08-10 14:11:00,77.8,58.7,29.68,East,87,1.0,5.0,52,0.00,,,0.00,858,WeatherCatV1.02B3,2013-08-10 21:11:00,
2013-08-10 14:16:00,78.0,58.9,29.68,NNW,346,0.0,3.0,52,0.00,,,0.00,854,WeatherCatV1.02B3,2013-08-10 21:16:00,
2013-08-10 14:21:00,77.7,59.2,29.68,NNE,16,1.0,6.0,53,0.00,,,0.00,844,WeatherCatV1.02B3,2013-08-10 21:21:00,
2013-08-10 14:26:00,78.1,59.0,29.68,ESE,112,3.0,5.0,52,0.00,,,0.00,838,WeatherCatV1.02B3,2013-08-10 21:26:00,
2013-08-10 14:31:00,77.7,58.7,29.68,North,9,3.0,5.0,52,0.00,,,0.00,830,WeatherCatV1.02B3,2013-08-10 21:31:00,
2013-08-10 14:36:00,78.0,59.5,29.68,SE,137,2.0,3.0,53,0.00,,,0.00,819,WeatherCatV1.02B3,2013-08-10 21:36:00,
2013-08-10 14:41:00,77.5,58.5,29.68,ENE,63,3.0,5.0,52,0.00,,,0.00,816,WeatherCatV1.02B3,2013-08-10 21:41:00,
2013-08-10 14:46:00,77.5,58.5,29.68,ENE,76,2.0,5.0,52,0.00,,,0.00,810,WeatherCatV1.02B3,2013-08-10 21:46:00,
2013-08-10 14:51:00,77.9,58.8,29.68,ENE,77,2.0,4.0,52,0.00,,,0.00,800,WeatherCatV1.02B3,2013-08-10 21:51:00,
2013-08-10 14:56:00,77.6,58.6,29.68,ENE,67,4.0,7.0,52,0.00,,,0.00,786,WeatherCatV1.02B3,2013-08-10 21:56:00,
2013-08-10 15:01:00,76.7,58.3,29.68,NE,54,5.0,10.0,53,0.00,,,0.00,782,WeatherCatV1.02B3,2013-08-10 22:01:00,
2013-08-10 15:06:00,77.2,58.2,29.68,ENE,67,4.0,8.0,52,0.00,,,0.00,772,WeatherCatV1.02B3,2013-08-10 22:06:00,
2013-08-10 15:11:00,77.2,58.7,29.68,NNE,17,3.0,3.0,53,0.00,,,0.00,761,WeatherCatV1.02B3,2013-08-10 22:11:00,
2013-08-10 15:16:00,77.3,58.8,29.68,SSW,213,1.0,4.0,53,0.00,,,0.00,754,WeatherCatV1.02B3,2013-08-10 22:16:00,
2013-08-10 15:21:00,78.0,58.4,29.68,South,175,0.0,5.0,51,0.00,,,0.00,744,WeatherCatV1.02B3,2013-08-10 22:21:00,
2013-08-10 15:26:00,77.4,58.4,29.68,SE,126,2.0,3.0,52,0.00,,,0.00,733,WeatherCatV1.02B3,2013-08-10 22:26:00,
2013-08-10 15:31:00,76.7,58.3,29.68,WNW,288,3.0,6.0,53,0.00,,,0.00,717,WeatherCatV1.02B3,2013-08-10 22:31:00,
2013-08-10 15:36:00,76.4,58.5,29.68,ESE,106,1.0,6.0,54,0.00,,,0.00,705,WeatherCatV1.02B3,2013-08-10 22:36:00,
2013-08-10 15:41:00,76.7,58.3,29.68,NE,45,2.0,6.0,53,0.00,,,0.00,696,WeatherCatV1.02B3,2013-08-10 22:41:00,
2013-08-10 15:46:00,77.2,58.7,29.68,NE,49,0.0,5.0,53,0.00,,,0.00,682,WeatherCatV1.02B3,2013-08-10 22:46:00,
2013-08-10 15:51:00,76.7,58.3,29.68,East,88,3.0,8.0,53,0.00,,,0.00,670,WeatherCatV1.02B3,2013-08-10 22:51:00,
2013-08-10 15:56:00,77.4,58.9,29.68,East,93,5.0,5.0,53,0.00,,,0.00,654,WeatherCatV1.02B3,2013-08-10 22:56:00,
2013-08-10 16:01:00,77.2,58.7,29.68,ESE,107,0.0,3.0,53,0.00,,,0.00,645,WeatherCatV1.02B3,2013-08-10 23:01:00,
2013-08-10 16:06:00,76.4,58.5,29.68,East,88,2.0,5.0,54,0.00,,,0.00,635,WeatherCatV1.02B3,2013-08-10 23:06:00,
2013-08-10 16:11:00,76.2,59.3,29.68,WSW,238,2.0,4.0,56,0.00,,,0.00,621,WeatherCatV1.02B3,2013-08-10 23:11:00,
2013-08-10 16:16:00,77.0,59.1,29.68,ENE,63,1.0,3.0,54,0.00,,,0.00,603,WeatherCatV1.02B3,2013-08-10 23:16:00,
2013-08-10 16:21:00,77.4,59.4,29.68,West,265,3.0,4.0,54,0.00,,,0.00,594,WeatherCatV1.02B3,2013-08-10 23:21:00,
2013-08-10 16:26:00,77.1,59.2,29.68,WNW,287,2.0,4.0,54,0.00,,,0.00,575,WeatherCatV1.02B3,2013-08-10 23:26:00,
2013-08-10 16:31:00,76.2,58.8,29.68,ENE,62,0.0,5.0,55,0.00,,,0.00,561,WeatherCatV1.02B3,2013-08-10 23:31:00,
2013-08-10 16:36:00,76.9,59.0,29.68,NNW,332,1.0,6.0,54,0.00,,,0.00,548,WeatherCatV1.02B3,2013-08-10 23:36:00,
2013-08-10 16:41:00,76.3,58.9,29.68,NNW,327,1.0,4.0,55,0.00,,,0.00,533,WeatherCatV1.02B3,2013-08-10 23:41:00,
2013-08-10 16:46:00,76.2,59.3,29.68,NW,316,1.0,3.0,56,0.00,,,0.00,515,WeatherCatV1.02B3,2013-08-10 23:46:00,
2013-08-10 16:51:00,76.6,59.2,29.68,WNW,284,3.0,6.0,55,0.00,,,0.00,501,WeatherCatV1.02B3,2013-08-10 23:51:00,
2013-08-10 16:56:00,76.2,58.8,29.68,NNW,329,1.0,3.0,55,0.00,,,0.00,487,WeatherCatV1.02B3,2013-08-10 23:56:00,
2013-08-10 17:01:00,76.0,59.2,29.68,WNW,285,1.0,4.0,56,0.00,,,0.00,471,WeatherCatV1.02B3,2013-08-11 00:01:00,
2013-08-10 17:06:00,76.0,59.2,29.68,West,266,0.0,2.0,56,0.00,,,0.00,455,WeatherCatV1.02B3,2013-08-11 00:06:00,
2013-08-10 17:11:00,75.4,59.6,29.68,North,350,0.0,3.0,58,0.00,,,0.00,443,WeatherCatV1.02B3,2013-08-11 00:11:00,
2013-08-10 17:16:00,75.4,59.1,29.68,WNW,292,1.0,3.0,57,0.00,,,0.00,425,WeatherCatV1.02B3,2013-08-11 00:16:00,
2013-08-10 17:21:00,75.5,59.2,29.68,WNW,298,3.0,5.0,57,0.00,,,0.00,410,WeatherCatV1.02B3,2013-08-11 00:21:00,
2013-08-10 17:26:00,75.0,59.2,29.68,West,272,5.0,8.0,58,0.00,,,0.00,392,WeatherCatV1.02B3,2013-08-11 00:26:00,
2013-08-10 17:31:00,75.5,59.2,29.68,WNW,294,3.0,4.0,57,0.00,,,0.00,380,WeatherCatV1.02B3,2013-08-11 00:31:00,
2013-08-10 17:36:00,74.9,59.1,29.68,WNW,294,3.0,8.0,58,0.00,,,0.00,360,WeatherCatV1.02B3,2013-08-11 00:36:00,
2013-08-10 17:41:00,74.8,59.5,29.68,WNW,298,5.0,6.0,59,0.00,,,0.00,343,WeatherCatV1.02B3,2013-08-11 00:41:00,
2013-08-10 17:46:00,74.3,59.0,29.68,WNW,284,5.0,6.0,59,0.00,,,0.00,327,WeatherCatV1.02B3,2013-08-11 00:46:00,
2013-08-10 17:51:00,74.1,59.3,29.68,WSW,256,3.0,5.0,60,0.00,,,0.00,311,WeatherCatV1.02B3,2013-08-11 00:51:00,
2013-08-10 17:56:00,74.3,59.5,29.68,WNW,284,3.0,5.0,60,0.00,,,0.00,295,WeatherCatV1.02B3,2013-08-11 00:56:00,
2013-08-10 18:01:00,74.0,59.2,29.68,NNW,333,1.0,4.0,60,0.00,,,0.00,279,WeatherCatV1.02B3,2013-08-11 01:01:00,
2013-08-10 18:06:00,73.6,59.3,29.68,SSW,198,0.0,5.0,61,0.00,,,0.00,262,WeatherCatV1.02B3,2013-08-11 01:06:00,
2013-08-10 18:11:00,73.7,59.4,29.68,West,276,4.0,4.0,61,0.00,,,0.00,246,WeatherCatV1.02B3,2013-08-11 01:11:00,
2013-08-10 18:16:00,73.5,59.2,29.68,West,267,2.0,3.0,61,0.00,,,0.00,229,WeatherCatV1.02B3,2013-08-11 01:16:00,
2013-08-10 18:21:00,73.4,59.1,29.68,West,270,1.0,6.0,61,0.00,,,0.00,213,WeatherCatV1.02B3,2013-08-11 01:21:00,
2013-08-10 18:26:00,73.0,59.6,29.68,West,277,4.0,5.0,63,0.00,,,0.00,197,WeatherCatV1.02B3,2013-08-11 01:26:00,
2013-08-10 18:31:00,72.8,59.5,29.68,West,278,3.0,4.0,63,0.00,,,0.00,178,WeatherCatV1.02B3,2013-08-11 01:31:00,
2013-08-10 18:36:00,72.0,59.1,29.68,West,269,3.0,5.0,64,0.00,,,0.00,158,WeatherCatV1.02B3,2013-08-11 01:36:00,
2013-08-10 18:41:00,71.7,59.3,29.68,West,279,4.0,5.0,65,0.00,,,0.00,139,WeatherCatV1.02B3,2013-08-11 01:41:00,
2013-08-10 18:46:00,71.3,58.9,29.68,WNW,284,4.0,6.0,65,0.00,,,0.00,120,WeatherCatV1.02B3,2013-08-11 01:46:00,
2013-08-10 18:51:00,70.8,58.9,29.68,West,277,2.0,4.0,66,0.00,,,0.00,102,WeatherCatV1.02B3,2013-08-11 01:51:00,
2013-08-10 18:56:00,70.3,58.8,29.68,West,266,3.0,4.0,67,0.00,,,0.00,35,WeatherCatV1.02B3,2013-08-11 01:56:00,
2013-08-10 19:01:00,69.8,58.7,29.68,West,278,5.0,7.0,68,0.00,,,0.00,32,WeatherCatV1.02B3,2013-08-11 02:01:00,
2013-08-10 19:06:00,69.5,58.5,29.68,WNW,290,2.0,5.0,68,0.00,,,0.00,28,WeatherCatV1.02B3,2013-08-11 02:06:00,
2013-08-10 19:11:00,69.2,58.6,29.68,WSW,246,4.0,6.0,69,0.00,,,0.00,26,WeatherCatV1.02B3,2013-08-11 02:11:00,
2013-08-10 19:16:00,68.8,58.2,29.68,WNW,302,2.0,5.0,69,0.00,,,0.00,23,WeatherCatV1.02B3,2013-08-11 02:16:00,
2013-08-10 19:21:00,68.5,58.3,29.68,WNW,302,4.0,4.0,70,0.00,,,0.00,21,WeatherCatV1.02B3,2013-08-11 02:21:00,
2013-08-10 19:26:00,68.2,58.4,29.68,West,276,3.0,5.0,71,0.00,,,0.00,18,WeatherCatV1.02B3,2013-08-11 02:26:00,
2013-08-10 19:31:00,67.7,57.9,29.68,WNW,286,1.0,4.0,71,0.00,,,0.00,14,WeatherCatV1.02B3,2013-08-11 02:31:00,
2013-08-10 19:36:00,67.2,57.9,29.68,West,267,2.0,5.0,72,0.00,,,0.00,11,WeatherCatV1.02B3,2013-08-11 02:36:00,
2013-08-10 19:41:00,66.8,57.9,29.68,WSW,252,2.0,3.0,73,0.00,,,0.00,9,WeatherCatV1.02B3,2013-08-11 02:41:00,
2013-08-10 19:46:00,66.4,57.5,29.68,West,261,0.0,5.0,73,0.00,,,0.00,5,WeatherCatV1.02B3,2013-08-11 02:46:00,
2013-08-10 19:51:00,66.1,57.6,29.68,WSW,245,2.0,3.0,74,0.00,,,0.00,0,WeatherCatV1.02B3,2013-08-11 02:51:00,
2013-08-10 19:56:00,65.6,57.5,29.68,West,261,1.0,2.0,75,0.00,,,0.00,0,WeatherCatV1.02B3,2013-08-11 02:56:00,
2013-08-10 20:01:00,65.0,57.2,29.68,West,268,1.0,2.0,76,0.00,,,0.00,0,WeatherCatV1.02B3,2013-08-11 03:01:00,
2013-08-10 20:06:00,64.7,57.3,29.68,West,268,0.0,0.0,77,0.00,,,0.00,0,WeatherCatV1.02B3,2013-08-11 03:06:00,
2013-08-10 20:11:00,64.2,56.8,29.68,West,268,0.0,0.0,77,0.00,,,0.00,0,WeatherCatV1.02B3,2013-08-11 03:11:00,
2013-08-10 20:16:00,63.9,56.9,29.68,West,268,0.0,0.0,78,0.00,,,0.00,0,WeatherCatV1.02B3,2013-08-11 03:16:00,
2013-08-10 20:21:00,63.6,57.0,29.68,West,268,0.0,0.0,79,0.00,,,0.00,0,WeatherCatV1.02B3,2013-08-11 03:21:00,
2013-08-10 20:26:00,63.4,56.8,29.68,West,268,0.0,0.0,79,0.00,,,0.00,0,WeatherCatV1.02B3,2013-08-11 03:26:00,
2013-08-10 20:31:00,63.1,56.5,29.68,West,268,0.0,0.0,79,0.00,,,0.00,0,WeatherCatV1.02B3,2013-08-11 03:31:00,
2013-08-10 20:36:00,62.9,56.6,29.68,West,268,0.0,0.0,80,0.00,,,0.00,0,WeatherCatV1.02B3,2013-08-11 03:36:00,
2013-08-10 20:41:00,62.1,55.5,29.68,West,268,0.0,0.0,79,0.00,,,0.00,0,WeatherCatV1.02B3,2013-08-11 03:41:00,
2013-08-10 20:46:00,61.7,55.5,29.68,West,268,0.0,0.0,80,0.00,,,0.00,0,WeatherCatV1.02B3,2013-08-11 03:46:00,
2013-08-10 20:51:00,61.3,55.4,29.68,West,268,0.0,0.0,81,0.00,,,0.00,0,WeatherCatV1.02B3,2013-08-11 03:51:00,
2013-08-10 20:56:00,61.2,55.7,29.68,West,268,0.0,0.0,82,0.00,,,0.00,0,WeatherCatV1.02B3,2013-08-11 03:56:00,
2013-08-10 21:01:00,61.0,55.5,29.68,West,268,0.0,0.0,82,0.00,,,0.00,0,WeatherCatV1.02B3,2013-08-11 04:01:00,
2013-08-10 21:06:00,60.7,54.8,29.68,West,268,0.0,0.0,81,0.00,,,0.00,0,WeatherCatV1.02B3,2013-08-11 04:06:00,
2013-08-10 21:11:00,60.6,55.4,29.68,West,268,0.0,0.0,83,0.00,,,0.00,0,WeatherCatV1.02B3,2013-08-11 04:11:00,
2013-08-10 21:16:00,60.5,55.3,29.68,West,268,0.0,0.0,83,0.00,,,0.00,0,WeatherCatV1.02B3,2013-08-11 04:16:00,
2013-08-10 21:21:00,60.2,55.0,29.68,West,268,0.0,0.0,83,0.00,,,0.00,0,WeatherCatV1.02B3,2013-08-11 04:21:00,
2013-08-10 21:26:00,60.2,55.3,29.68,West,268,0.0,0.0,84,0.00,,,0.00,0,WeatherCatV1.02B3,2013-08-11 04:26:00,
2013-08-10 21:31:00,59.6,54.8,29.68,West,268,0.0,0.0,84,0.00,,,0.00,0,WeatherCatV1.02B3,2013-08-11 04:31:00,
2013-08-10 21:36:00,59.4,54.9,29.68,West,268,0.0,0.0,85,0.00,,,0.00,0,WeatherCatV1.02B3,2013-08-11 04:36:00,
2013-08-10 21:41:00,59.5,55.0,29.68,West,268,0.0,0.0,85,0.00,,,0.00,0,WeatherCatV1.02B3,2013-08-11 04:41:00,
2013-08-10 21:46:00,59.2,54.7,29.68,West,268,0.0,0.0,85,0.00,,,0.00,0,WeatherCatV1.02B3,2013-08-11 04:46:00,
2013-08-10 21:51:00,59.2,54.7,29.68,West,268,0.0,0.0,85,0.00,,,0.00,0,WeatherCatV1.02B3,2013-08-11 04:51:00,
2013-08-10 21:56:00,58.9,54.4,29.68,West,268,0.0,0.0,85,0.00,,,0.00,0,WeatherCatV1.02B3,2013-08-11 04:56:00,
2013-08-10 22:01:00,58.7,54.5,29.68,West,268,0.0,0.0,86,0.00,,,0.00,0,WeatherCatV1.02B3,2013-08-11 05:01:00,
2013-08-10 22:06:00,58.7,54.5,29.68,West,268,0.0,0.0,86,0.00,,,0.00,0,WeatherCatV1.02B3,2013-08-11 05:06:00,
2013-08-10 22:11:00,58.9,55.0,29.68,West,268,0.0,0.0,87,0.00,,,0.00,0,WeatherCatV1.02B3,2013-08-11 05:11:00,
2013-08-10 22:16:00,58.7,54.8,29.68,West,268,0.0,0.0,87,0.00,,,0.00,0,WeatherCatV1.02B3,2013-08-11 05:16:00,
2013-08-10 22:21:00,58.3,54.1,29.68,West,268,0.0,0.0,86,0.00,,,0.00,0,WeatherCatV1.02B3,2013-08-11 05:21:00,
2013-08-10 22:26:00,58.0,54.2,29.68,West,268,0.0,0.0,87,0.00,,,0.00,0,WeatherCatV1.02B3,2013-08-11 05:26:00,
2013-08-10 22:31:00,57.8,54.0,29.68,West,268,0.0,0.0,87,0.00,,,0.00,0,WeatherCatV1.02B3,2013-08-11 05:31:00,
2013-08-10 22:36:00,58.3,54.8,29.68,West,268,0.0,0.0,88,0.00,,,0.00,0,WeatherCatV1.02B3,2013-08-11 05:36:00,
2013-08-10 22:41:00,57.7,53.9,29.68,West,268,0.0,0.0,87,0.00,,,0.00,0,WeatherCatV1.02B3,2013-08-11 05:41:00,
2013-08-10 22:46:00,57.0,53.2,29.68,West,268,0.0,0.0,87,0.00,,,0.00,0,WeatherCatV1.02B3,2013-08-11 05:46:00,
2013-08-10 22:51:00,57.0,53.5,29.68,West,268,0.0,0.0,88,0.00,,,0.00,0,WeatherCatV1.02B3,2013-08-11 05:51:00,
2013-08-10 22:56:00,57.6,54.4,29.68,West,268,0.0,0.0,89,0.00,,,0.00,0,WeatherCatV1.02B3,2013-08-11 05:56:00,
2013-08-10 23:01:00,57.0,52.9,29.68,West,268,0.0,0.0,86,0.00,,,0.00,0,WeatherCatV1.02B3,2013-08-11 06:01:00,
2013-08-10 23:06:00,56.9,53.7,29.68,West,268,0.0,0.0,89,0.00,,,0.00,0,WeatherCatV1.02B3,2013-08-11 06:06:00,
2013-08-10 23:11:00,56.9,53.4,29.68,West,268,0.0,0.0,88,0.00,,,0.00,0,WeatherCatV1.02B3,2013-08-11 06:11:00,
2013-08-10 23:16:00,56.8,53.3,29.68,West,268,0.0,0.0,88,0.00,,,0.00,0,WeatherCatV1.02B3,2013-08-11 06:16:00,
2013-08-10 23:21:00,56.6,53.4,29.68,West,268,0.0,0.0,89,0.00,,,0.00,0,WeatherCatV1.02B3,2013-08-11 06:21:00,
2013-08-10 23:26:00,56.7,53.5,29.68,West,268,0.0,0.0,89,0.00,,,0.00,0,WeatherCatV1.02B3,2013-08-11 06:26:00,
2013-08-10 23:31:00,56.5,53.3,29.68,West,268,0.0,0.0,89,0.00,,,0.00,0,WeatherCatV1.02B3,2013-08-11 06:31:00,
2013-08-10 23:36:00,56.4,53.2,29.68,West,268,0.0,0.0,89,0.00,,,0.00,0,WeatherCatV1.02B3,2013-08-11 06:36:00,
2013-08-10 23:41:00,56.4,53.2,29.68,West,268,0.0,0.0,89,0.00,,,0.00,0,WeatherCatV1.02B3,2013-08-11 06:41:00,
2013-08-10 23:46:00,56.3,53.1,29.68,West,268,0.0,0.0,89,0.00,,,0.00,0,WeatherCatV1.02B3,2013-08-11 06:46:00,
2013-08-10 23:51:00,56.1,52.9,29.68,West,268,0.0,0.0,89,0.00,,,0.00,0,WeatherCatV1.02B3,2013-08-11 06:51:00,
2013-08-10 23:56:00,55.7,52.5,29.68,West,268,0.0,0.0,89,0.00,,,0.00,0,WeatherCatV1.02B3,2013-08-11 06:56:00,